[[{"header":{"parameterUnit":"m.s-1","parameterCategory":1,"la1":30.2991,"la2":30.254,"lo1":-89.0895,"lo2":-89.0444,"dx":0.0017,"dy":0.0017,"nx":28,"ny":28,"refTime":"2023-01-09T03:00:00:Z","depth":0,"parameterNumber":2,"parameterNumberName":"U-component_of_WINDS"},"data":[0,0,0,0,0,0,0,0,0,0,0,0,0,0,0,0,0,0,0,0,0,0,0,0,0,0,0,0,0,0,0,0,0,0,0,0,0,0,0,0,0,0,0,0,0,0,0,0,0,0,0,0,0,0,0,0,0,0,0.1933,0.1935,0,0.2071,0.2072,0.2074,0.2127,0.2126,0.2126,0.2125,0.2272,0.2276,0.2281,0,0,0,0,0,0,0,0,0,0,0,0,0,0.1721,0.1725,0.1933,0.1935,0.1937,0.2071,0.2072,0.2074,0.2127,0.2126,0.2126,0.2125,0.2271,0.2276,0.2281,0,0,0,0,0,0,0,0,0,0,0,0,0,0.1832,0.1726,0.1933,0.1979,0.1984,0.207,0.2073,0.2075,0.2127,0.2126,0.2125,0.2125,0.2269,0.2275,0.2282,0.2334,0,0,0.2301,0.2304,0,0,0,0,0,0,0,0,0.1825,0.1839,0.197,0.1976,0.1982,0.2081,0.2052,0.2162,0.2127,0.2073,0.2125,0.2125,0.2209,0.2221,0.2248,0.2341,0.2347,0.2302,0.2306,0.2309,0.2311,0,0,0,0,0,0,0,0.1818,0.1834,0.1988,0.1972,0.1979,0.1994,0.2009,0.2073,0.2143,0.2077,0.2082,0.2097,0.2213,0.2242,0.2252,0.235,0.2302,0.2308,0.2312,0.2314,0.2493,0.2494,0,0,0,0,0,0,0.1802,0.1827,0.1984,0.1992,0.19,0.1999,0.2015,0.205,0.2143,0.2156,0.2097,0.2099,0.2231,0.2244,0.2257,0.2325,0.2309,0.2315,0.2318,0.2492,0.2494,0.2495,0,0,0,0,0,0,0.1797,0.1815,0.1978,0.1911,0.1933,0.2003,0.2041,0.2053,0.2082,0.2157,0.2171,0.2114,0.2231,0.2248,0.2314,0.2331,0.2318,0.2324,0.2491,0.2493,0.2494,0.2461,0,0,0,0,0,0,0.1791,0.1813,0.1832,0.1911,0.1936,0.2031,0.2042,0.2056,0.2092,0.2096,0.2176,0.2189,0.2232,0.2304,0.2321,0.234,0.2329,0.249,0.2492,0.2494,0.2461,0.2461,0.2461,0,0,0,0,0,0.1783,0.1819,0.1833,0.1852,0.1961,0.2032,0.2046,0.2093,0.2093,0.2114,0.2163,0.2187,0.2326,0.2311,0.233,0.2351,0.249,0.2492,0.2494,0.2461,0.2461,0.2461,0,0,0,0,0,0,0.1742,0.183,0.1847,0.1908,0.1962,0.204,0.2068,0.2091,0.2147,0.2148,0.2206,0.2223,0.2285,0.2325,0.2306,0.2407,0.241,0.2416,0.2378,0.2379,0.2379,0.2369,0.2334,0,0,0,0,0,0.174,0.1788,0.1863,0.1911,0.1936,0.1997,0.203,0.2061,0.2119,0.2143,0.2196,0.2254,0.2311,0.2347,0.2404,0.2467,0.2486,0.2491,0.2491,0.249,0.2495,0.2532,0.2535,0.2501,0.2501,0.2501,0,0,0.1737,0.1791,0.1818,0.1904,0.1949,0.1999,0.2016,0.2069,0.2107,0.2152,0.2217,0.2258,0.2326,0.2391,0.2422,0.2426,0.2508,0.2493,0.2492,0.2497,0.2534,0.2538,0.254,0.2502,0.2502,0.2502,0,0,0.1757,0.1802,0.1847,0.1891,0.1958,0.1999,0.2009,0.2084,0.2113,0.2178,0.2213,0.2261,0.2357,0.2405,0.2441,0.2479,0.2503,0.2496,0.2497,0.2532,0.2535,0.2537,0.2551,0.2556,0.25,0.25,0.25,0,0.1746,0.1821,0.1867,0.1918,0.1955,0.1995,0.2042,0.2083,0.2167,0.2192,0.2194,0.2316,0.2365,0.2442,0.2451,0.2479,0.2494,0.2487,0.253,0.2533,0.2537,0.2551,0.2556,0.2499,0.2499,0.2499,0.2499,0,0.1803,0.1855,0.1883,0.196,0.2,0.2049,0.2104,0.214,0.2167,0.2208,0.2275,0.2335,0.2404,0.2425,0.2453,0.2506,0.2506,0.2518,0.2523,0.2538,0.2552,0.2558,0.2497,0.2497,0.2498,0.2498,0,0,0.1802,0.1903,0.1913,0.1949,0.2026,0.2068,0.2118,0.2184,0.2214,0.227,0.2315,0.2396,0.2407,0.2449,0.2483,0.2514,0.2541,0.2523,0.2526,0.2525,0.2604,0.2594,0.2599,0.2557,0.2558,0.2559,0.2598,0,0.1832,0.1922,0.1966,0.2038,0.2087,0.2126,0.2171,0.2224,0.2263,0.2312,0.2357,0.2413,0.2424,0.2449,0.2481,0.253,0.2557,0.2528,0.2601,0.2603,0.2583,0.2607,0.2597,0.263,0.2604,0.2605,0.2605,0,0.188,0.1934,0.201,0.2081,0.2103,0.2142,0.2206,0.2252,0.2314,0.234,0.2386,0.2419,0.2476,0.2475,0.2555,0.2534,0.2567,0.2596,0.2598,0.2607,0.2605,0.2617,0.2642,0.2647,0.2615,0.2614,0.2613,0,0.1872,0.1964,0.2021,0.205,0.2135,0.2161,0.2198,0.2259,0.2296,0.2353,0.2377,0.2441,0.2476,0.2525,0.2575,0.257,0.265,0.2654,0.2675,0.2674,0.2691,0.2689,0.2722,0.2711,0.2711,0.2711,0.2711,0,0.1902,0.1947,0.2018,0.2053,0.2106,0.2156,0.2207,0.2247,0.2301,0.2346,0.2385,0.2427,0.249,0.2541,0.258,0.2641,0.2656,0.2681,0.2691,0.2678,0.2674,0.27,0.2699,0.2712,0.2712,0.2711,0.2711,0,0.1901,0.1951,0.2016,0.209,0.211,0.2145,0.221,0.2247,0.2288,0.2345,0.2361,0.2426,0.2488,0.2542,0.2624,0.2651,0.2713,0.2725,0.2691,0.2697,0.2715,0.2713,0.2766,0.2776,0.2757,0.2758,0.2758,0,0.1917,0.1953,0.203,0.2062,0.2098,0.2149,0.2186,0.2238,0.2276,0.2348,0.2377,0.2441,0.2494,0.2591,0.2647,0.2711,0.2725,0.2739,0.2735,0.272,0.2726,0.2723,0.2727,0.2739,0.2739,0.2739,0.2739,0,0.194,0.1963,0.2014,0.2074,0.2117,0.2167,0.2219,0.2243,0.2305,0.2346,0.2408,0.2449,0.2532,0.2595,0.2665,0.2705,0.2733,0.274,0.2748,0.2735,0.2714,0.2726,0.2691,0.2738,0.2738,0.2738,0.2739,0.2739,0.1949,0.1982,0.2042,0.2098,0.2141,0.2189,0.2227,0.2272,0.2324,0.2394,0.2422,0.2485,0.2547,0.2643,0.2683,0.2735,0.274,0.2752,0.2755,0.2758,0.2755,0.2705,0.2748,0.2748,0.2748,0.2748,0.2748,0,0.1974,0.2014,0.2065,0.2135,0.2179,0.2199,0.2257,0.2294,0.2348,0.2403,0.2454,0.2526,0.2588,0.2649,0.2714,0.2744,0.2759,0.276,0.2758,0.2767,0.2747,0.2733,0.2747,0.2747,0.2747,0.2747,0.2747,0.2747,0.1992,0.205,0.2079,0.2159,0.22,0.2261,0.2292,0.2337,0.238,0.2458,0.2509,0.2547,0.2605,0.2674,0.2733,0.2749,0.2772,0.2769,0.2789,0.2769,0.2769,0.2768,0.2756,0.2774,0.2774,0.2805,0.2806,0.2806]},{"header":{"parameterUnit":"m.s-1","parameterCategory":1,"la1":30.2991,"la2":30.254,"lo1":-89.0895,"lo2":-89.0444,"dx":0.0017,"dy":0.0017,"nx":28,"ny":28,"refTime":"2023-01-09T03:00:00:Z","depth":0,"parameterNumber":3,"parameterNumberName":"V-component_of_WINDS"},"data":[0,0,0,0,0,0,0,0,0,0,0,0,0,0,0,0,0,0,0,0,0,0,0,0,0,0,0,0,0,0,0,0,0,0,0,0,0,0,0,0,0,0,0,0,0,0,0,0,0,0,0,0,0,0,0,0,0,0,0.3463,0.3462,0,0.3402,0.3401,0.3401,0.3373,0.3373,0.3373,0.3373,0.3309,0.3307,0.3305,0,0,0,0,0,0,0,0,0,0,0,0,0,0.3552,0.3551,0.3463,0.3462,0.3461,0.3402,0.3401,0.3401,0.3373,0.3373,0.3373,0.3373,0.3309,0.3307,0.3305,0,0,0,0,0,0,0,0,0,0,0,0,0,0.3505,0.355,0.3463,0.3441,0.3438,0.3402,0.3401,0.34,0.3373,0.3373,0.3373,0.3373,0.331,0.3307,0.3305,0.3286,0,0,0.3297,0.3295,0,0,0,0,0,0,0,0,0.3507,0.3501,0.3445,0.3442,0.3439,0.3395,0.3409,0.3362,0.3373,0.3397,0.3373,0.3373,0.3337,0.3332,0.3321,0.3283,0.3281,0.3296,0.3295,0.3294,0.3293,0,0,0,0,0,0,0,0.3511,0.3504,0.3439,0.3444,0.344,0.3432,0.3426,0.34,0.3367,0.3395,0.3393,0.3386,0.3336,0.3323,0.3319,0.328,0.3296,0.3294,0.3292,0.3291,0.3223,0.3223,0,0,0,0,0,0,0.3518,0.3507,0.3441,0.3437,0.3474,0.3431,0.3423,0.3409,0.3368,0.3362,0.3386,0.3385,0.3328,0.3322,0.3317,0.3292,0.3294,0.3291,0.329,0.3223,0.3223,0.3223,0,0,0,0,0,0,0.352,0.3512,0.3443,0.3471,0.3462,0.3429,0.3413,0.3408,0.3396,0.3361,0.3355,0.338,0.3328,0.332,0.3294,0.3289,0.329,0.3287,0.3223,0.3223,0.3223,0.3242,0,0,0,0,0,0,0.3523,0.3513,0.3507,0.3471,0.346,0.3423,0.3413,0.3407,0.3391,0.3389,0.3353,0.3347,0.3327,0.3298,0.3291,0.3285,0.3285,0.3224,0.3223,0.3223,0.3242,0.3243,0.3243,0,0,0,0,0,0.3526,0.3515,0.3507,0.3499,0.3452,0.3422,0.3416,0.3394,0.3391,0.3384,0.3361,0.3349,0.3291,0.3296,0.3288,0.3281,0.3224,0.3223,0.3223,0.3242,0.3243,0.3243,0,0,0,0,0,0,0.355,0.351,0.35,0.3477,0.3454,0.3418,0.3408,0.3396,0.3372,0.3371,0.3343,0.3335,0.3311,0.3293,0.3299,0.326,0.3256,0.3254,0.3273,0.3274,0.3274,0.3279,0.3283,0,0,0,0,0,0.3553,0.3533,0.3498,0.3481,0.347,0.3441,0.3427,0.3412,0.3386,0.3376,0.3352,0.3326,0.3302,0.3287,0.3263,0.3239,0.323,0.323,0.3231,0.3232,0.323,0.3215,0.3215,0.3221,0.3221,0.3221,0,0,0.3558,0.3533,0.3522,0.3485,0.3465,0.3445,0.3433,0.3412,0.3396,0.3372,0.3346,0.3327,0.3297,0.3272,0.3259,0.3256,0.3226,0.3231,0.3232,0.323,0.3215,0.3214,0.3214,0.3221,0.3221,0.3221,0,0,0.3557,0.3536,0.352,0.35,0.3469,0.345,0.3446,0.3412,0.3399,0.3372,0.3354,0.3334,0.3293,0.3272,0.3256,0.3245,0.3232,0.3238,0.3242,0.3227,0.3227,0.3226,0.3222,0.322,0.3237,0.3237,0.3237,0,0.3567,0.3536,0.3512,0.3492,0.3476,0.3454,0.3436,0.3417,0.3381,0.3369,0.3366,0.3314,0.3292,0.3261,0.3259,0.3247,0.324,0.3242,0.3229,0.3228,0.3227,0.3222,0.3221,0.3238,0.3238,0.3237,0.3237,0,0.3549,0.3528,0.3518,0.3483,0.3465,0.3446,0.3419,0.3404,0.339,0.3371,0.3343,0.3316,0.3285,0.3277,0.3263,0.3243,0.3242,0.3234,0.3229,0.3228,0.3223,0.3221,0.3239,0.3239,0.3238,0.3238,0,0,0.3562,0.3514,0.3511,0.3494,0.3459,0.3441,0.3421,0.3391,0.3379,0.3353,0.3335,0.33,0.3293,0.3275,0.3258,0.3245,0.3237,0.3239,0.3237,0.3239,0.3213,0.3219,0.3217,0.3228,0.3228,0.3228,0.3215,0,0.3556,0.3519,0.3496,0.3468,0.3447,0.3426,0.3407,0.3383,0.3364,0.3343,0.3321,0.3297,0.3289,0.3278,0.3265,0.3241,0.3232,0.3242,0.321,0.3209,0.3218,0.3215,0.3221,0.3211,0.3213,0.3213,0.3213,0,0.3544,0.3519,0.3489,0.3455,0.3445,0.3429,0.34,0.338,0.3352,0.3338,0.3318,0.3301,0.3277,0.3273,0.3239,0.3247,0.3232,0.3218,0.3217,0.3213,0.3211,0.321,0.3207,0.3205,0.3209,0.321,0.321,0,0.3555,0.3515,0.3491,0.3478,0.3437,0.3427,0.3409,0.338,0.3364,0.3338,0.3327,0.3298,0.3283,0.326,0.3235,0.3236,0.3203,0.3198,0.3191,0.3191,0.3185,0.3186,0.3179,0.3176,0.3176,0.3176,0.3176,0,0.355,0.3532,0.3496,0.3481,0.346,0.3434,0.3413,0.3394,0.3368,0.3349,0.3328,0.331,0.3278,0.3256,0.3236,0.321,0.3203,0.3191,0.3186,0.3193,0.3194,0.3183,0.3182,0.3176,0.3176,0.3176,0.3176,0,0.356,0.3535,0.3508,0.3471,0.3462,0.3448,0.3416,0.34,0.338,0.3355,0.3348,0.3316,0.3288,0.3261,0.3224,0.321,0.3184,0.3178,0.3194,0.3191,0.3185,0.3186,0.317,0.3166,0.3167,0.3167,0.3167,0,0.3559,0.3544,0.3506,0.3492,0.3475,0.3452,0.3435,0.3408,0.3391,0.3357,0.3345,0.3316,0.3291,0.3248,0.322,0.3191,0.3183,0.318,0.3179,0.3186,0.3182,0.3184,0.3181,0.3181,0.3181,0.3181,0.3181,0,0.3558,0.3546,0.3523,0.3495,0.3475,0.3452,0.3427,0.3417,0.3385,0.3366,0.3338,0.3319,0.3281,0.3252,0.3219,0.32,0.3185,0.3182,0.3178,0.3185,0.3195,0.3188,0.3196,0.3182,0.3182,0.3182,0.3182,0.3182,0.3562,0.3547,0.3518,0.3493,0.3472,0.3449,0.3432,0.341,0.3386,0.3353,0.3339,0.331,0.328,0.3235,0.3216,0.3192,0.3188,0.3183,0.3182,0.3181,0.3182,0.3199,0.3186,0.3186,0.3186,0.3186,0.3186,0,0.356,0.354,0.3516,0.3483,0.3462,0.3451,0.3423,0.3406,0.3381,0.3355,0.3331,0.3297,0.3269,0.3239,0.3208,0.3195,0.3187,0.3187,0.3188,0.3183,0.3188,0.3193,0.3194,0.3194,0.3194,0.3194,0.3194,0.3194,0.3556,0.3531,0.3516,0.348,0.3459,0.3432,0.3416,0.3395,0.3374,0.3338,0.3314,0.3295,0.3267,0.3233,0.3206,0.3198,0.3187,0.319,0.3179,0.3184,0.3183,0.3183,0.3188,0.3188,0.3188,0.3177,0.3177,0.3177]}]]